SCP
-0 0 0 -0 -0 -0 -0 -0 -0 -0 -0 -0 -0 0 0 0 -0 -0 -0 0 0 -0 -0 -0 -0 -0 -0 -0 -0 -0 0 0 -0 -0 -0 -0 -0 0 -0 -0 -0 -0 -0 -0 -0
0 0 0 0 0 0 0 0 -0 -0 -0 -0 -0 -0 0 0 0 0 0 0 0 0 0 -0 -0 -0 0 0 0 0 0 0 0 -0 -0 -0 -0 0 -0 -0 0 -0 -0 -0 -0
0 0 0 0 0 0 0 0 0 0 -0 0 0 0 0 0 0 0 0 0 0 0 0 -0 -0 -0 0 0 0 -0 0 -0 0 -0 0 -0 -0 -0 -0 -0 -0 -0 -0 -0 -0
0 0 0 0 0 0 0 0 0 0 0 0 0 0 0 0 0 0 0 0 0 0 -0 0 0 0 0 0 -0 0 -0 0 -0 0 0 0 -0 -0 -0 -0 -0 -0 -0 -0 -0
0 0 0 0 0 0 0 0 0 0 0 0 0 0 0 0 0 0 0 0 0 0 0 0 0 0 0 0 0 0 0 0 0 -0 0 -0 -0 -0 -0 0 -0 -0 -0 -0 -0
0 0 0 0 0 0 0 0 0 0 0 0 0 0 0 0 0 0 0 0 0 0 0 0 0 0 0 0 0 0 0 0 0 0 -0 -0 -0 -0 -0 -0 -0 -0 -0 -0 -0
0 0 0 0 0 0 0 0 0 0 0 0 -0 0 0 0 0 0 0 0 0 0 0 0 0 0 0 0 0 0 0 0 -0 0 -0 -0 -0 -0 0 -0 -0 -0 -0 -0 -0
0 0 0 0 0 0 0 0 0 0 0 0 -0 -0 0 0 0 0 0 0 0 0 0 0 0 0 0 0 0 0 0 0 0 0 -0 0 -0 -0 -0 -0 -0 -0 -0 -0 -0
0 0 0 0 -0 0 0 0 0 0 0 0 -0 0 0 0 0 0 0 0 0 0 0 0 0 0 0 0 0 0 0 0 0 0 0 0 0 0 -0 -0 -0 -0 -0 -0 -0
-0 -0 -0 -0 -0 -0 -0 -0 0 0 -0 -0 -0 0 0 0 0 0 0 0 0 0 0 0 0 0 0 0 0 0 -0 -0 0 -0 0 0 0 0 -0 -0 -0 -0 -0 -0 -0
-0 -0 -0 -0 -0 -0 -0 0 0 -0 0 0 0 0 0 0 0 0 0 0 0 0 0 0 0 0 0 0 0 0 -0 -0 0 0 -0 -0 -0 -0 -0 -0 -0 -0 -0 -0 -0
0 -0 -0 -0 -0 -0 -0 0 0 0 0 0 0 0 0 0 0 0 0 0 0 0 0 0 0 0 0 0 0 0 0 0 0 0 0 0 0 0 0 0 -0 -0 -0 -0 -0
-0 -0 -0 -0 -0 0 0 0 0 0 0 0 0 0 0 0 0 0 -0 0 0 0 0 0 0 0 0 0 0 0 0 0 0 0 0 0 0 0 0 0 0 -0 -0 -0 -0
-0 -0 -0 -0 -0 0 0 0 0 0 0 0 0 0 0 0 0 0 0 0 0 0 0 0 0 0 0 0 0 0 0 0 0 0 0 0 0 0 0 0 0 0 -0 0 -0
-0 0 -0 0 0 0 0 -0 -0 0 0 0 0 0 0 0 0 0 0 0 0 0 0 0 0 0 0 0 0 0 0 0 0 0 0 0 0 -0 -0 0 0 0 0 -0 -0
0 0 -0 0 0 0 -0 -0 -0 0 0 0 0 0 0 0 0 0 0 0 0 0 0 0 0 0 0 0 0 0 0 0 0 0 0 0 0 0 0 0 0 0 0 -0 -0
0 0 -0 -0 0 -0 -0 -0 0 0 0 0 0 0 0 0 0 0 0 0 0 0 0 0 0 0 0 0 0 0 0 0 0 0 0 0 0 -0 0 0 0 0 -0 -0 -0
-0 -0 0 0 0 -0 -0 0 0 0 0 0 0 0 0 0 0 0 0 0 0 0 0 0 0 0 0 0 0 0 0 0 0 0 0 0 0 0 0 0 0 0 0 0 -0
-0 0 0 0 -0 -0 -0 -0 0 0 0 0 0 0 0 0 0 0 0 0 0 0 0 0 0 0 0 0 0 0 0 0 0 0 0 0 0 0 0 -0 -0 0 0 0 -0
0 0 0 0 -0 -0 0 -0 0 0 0 0 0 0 0 0 0 0 0 0 0 0 0 0 0 0 0 0 0 0 0 0 0 0 0 0 0 0 0 0 0 0 0 0 0
0 0 0 0 0 0 -0 0 0 0 0 0 0 0 0 0 0 0 0 0 0 0 0 0 0 0 0 0 0 0 0 0 0 0 0 0 0 0 0 0 0 -0 0 -0 0
-0 0 0 0 0 0 0 0 0 0 0 0 0 0 0 0 0 0 0 0 0 0 0 0 0 0 0 0 0 0 0 0 0 0 0 0 0 0 0 0 0 0 0 0 0
0 0 0 -0 -0 0 0 0 0 0 0 0 0 0 0 0 0 0 0 0 0 0 0 0 0 0 0 0 0 0 0 0 0 0 0 0 0 0 0 0 0 0 0 0 0
-0 0 0 0 0 0 0 0 0 0 0 0 0 0 0 0 0 0 0 0 0 0 0 0 0 0 0 0 0 0 0 0 0 0 0 0 0 0 0 0 0 0 0 0 0
0 0 0 0 0 0 0 0 0 0 0 0 0 0 0 0 0 0 0 0 0 0 0 0 0 0 0 0 0 0 0 0 0 0 0 0 0 0 0 0 0 0 0 0 0
-0 0 0 0 0 0 0 0 0 0 0 0 0 0 0 0 0 0 0 0 0 0 0 0 0 0 0 0 0 0 0 0 0 0 0 0 0 0 0 0 0 0 0 0 0
0 0 0 0 0 0 0 0 -0 -0 0 0 0 0 0 0 0 0 0 0 0 0 0 0 0 0 0 0 0 0 0 0 0 0 0 0 0 0 0 0 0 0 1 0 -0
Wind_Speed_500mb
36 34 34 35 34 34 35 36 35 33 33 34 33 31 28 28 26 26 16 19 20 20 12 23 26 21 21 26 26 30 19 12 27 23 24 21 28 18 29 28 15 8 33 56 54
36 37 37 34 33 35 35 33 33 34 34 32 31 30 29 29 28 28 31 30 30 24 27 32 32 27 30 21 23 20 5 10 13 17 30 20 31 22 24 27 22 20 51 55 54
41 39 37 37 34 33 32 33 32 33 33 31 28 27 25 24 28 10 12 8 22 28 29 30 26 29 32 24 26 28 8 22 11 22 5 32 34 23 26 23 34 36 54 57 54
43 43 41 37 36 34 33 31 30 31 32 29 26 25 21 11 9 3 11 5 18 32 27 33 30 35 33 30 28 22 34 34 20 12 8 2 35 15 34 22 41 40 53 58 52
45 44 41 41 38 36 35 33 31 27 29 27 22 23 17 16 19 10 16 9 18 34 32 37 36 37 32 25 20 22 24 8 9 10 9 17 22 27 30 24 32 41 51 54 51
45 44 44 43 39 39 37 34 31 27 26 25 19 19 12 31 4 2 6 12 16 28 31 35 30 35 29 31 20 12 24 18 14 8 15 24 20 21 36 24 35 41 50 51 49
48 45 42 42 41 39 38 33 29 26 23 21 16 12 18 26 8 8 8 16 22 25 30 36 30 29 25 26 33 23 21 25 25 21 20 26 24 21 28 35 38 39 45 49 47
52 46 41 39 38 39 37 30 29 22 17 13 8 4 16 7 15 21 16 17 18 28 24 28 33 27 40 24 13 26 30 27 30 30 21 29 28 51 42 36 35 38 43 48 48
58 54 46 37 35 36 30 27 26 17 11 6 5 9 11 8 10 12 24 25 21 23 23 17 30 36 37 28 26 31 30 38 24 29 21 31 16 39 37 41 36 37 41 46 48
59 54 44 38 34 29 26 26 12 8 7 1 12 14 13 10 8 11 15 23 27 26 28 21 26 27 30 30 30 36 38 38 30 31 20 29 16 38 41 42 38 37 41 46 48
60 56 42 37 35 22 22 16 7 3 13 22 3 18 9 8 13 14 19 26 33 33 32 37 26 34 41 40 38 38 38 40 22 29 31 31 46 34 33 39 43 39 40 45 47
60 58 40 32 27 14 19 11 9 11 16 9 7 7 9 9 11 21 22 30 30 34 39 29 38 35 31 34 41 42 31 31 21 34 39 23 30 33 29 31 39 42 42 43 47
59 51 38 30 16 14 8 4 10 12 16 20 8 1 4 11 17 27 29 37 32 40 41 42 33 40 33 34 37 40 38 33 25 26 31 35 26 8 27 28 40 42 41 43 50
56 46 32 19 10 9 1 12 16 8 11 27 22 9 10 6 16 10 23 23 23 37 41 41 38 17 44 31 32 41 43 41 34 32 26 37 17 16 65 35 29 33 47 43 49
50 38 23 12 3 10 13 16 12 4 12 4 18 3 7 15 4 22 21 26 32 32 34 34 36 30 34 30 39 35 38 40 39 28 36 16 23 48 49 43 38 40 46 48 47
39 24 13 14 10 13 17 15 4 14 3 14 5 10 21 15 15 4 27 26 20 25 35 40 38 33 27 31 35 32 38 44 32 30 33 39 35 24 27 38 42 44 49 51 53
32 11 5 5 10 20 17 7 14 15 3 10 3 8 8 8 16 18 23 30 23 20 30 34 40 32 27 37 34 33 35 21 26 31 32 41 30 42 16 32 41 44 53 55 59
28 9 6 6 15 19 12 18 22 16 8 6 7 11 23 9 7 12 13 13 7 21 26 30 36 39 38 40 36 38 43 28 39 35 33 40 34 37 39 26 46 50 55 54 59
20 6 4 10 15 13 19 18 14 11 8 10 10 19 21 15 9 20 18 3 11 12 27 25 42 49 42 33 43 37 43 46 44 40 33 34 36 15 20 33 23 19 22 54 58
9 6 5 14 11 11 17 11 7 11 14 13 22 4 15 18 19 23 26 6 5 7 19 17 26 30 41 32 41 44 37 37 32 43 38 43 44 30 23 18 20 19 25 30 52
8 13 2 10 8 21 14 12 4 6 12 12 7 10 15 5 26 19 20 14 6 8 15 18 21 26 30 38 39 30 36 31 39 31 27 27 26 29 42 34 25 28 41 50 51
10 8 10 7 25 5 3 7 5 2 2 3 11 16 13 1 19 12 11 5 6 17 18 5 15 32 37 31 40 40 42 34 28 41 33 24 4 18 36 22 16 22 24 18 21
16 9 10 7 12 5 9 7 7 7 4 3 3 9 2 11 10 17 1 7 9 10 11 14 20 23 32 37 38 44 40 43 36 38 41 31 13 20 8 20 19 24 19 17 16
13 6 9 2 8 17 2 7 8 3 5 13 12 9 11 16 11 4 18 10 5 9 11 11 23 27 24 6 22 41 42 39 45 32 34 36 20 15 25 11 20 17 21 25 17
6 8 9 6 8 10 9 10 10 5 6 10 10 16 14 15 16 18 7 10 16 6 14 11 24 29 34 12 17 28 46 46 39 37 41 31 41 27 27 20 18 15 25 32 25
13 11 3 8 2 10 5 8 7 4 8 4 16 23 12 19 13 12 6 11 11 3 15 17 17 21 27 28 25 23 21 25 43 37 34 37 33 36 32 25 24 30 28 30 25
6 6 12 7 5 11 8 8 6 6 4 1 13 13 21 25 26 20 20 21 22 14 17 14 17 19 30 32 30 32 31 34 33 34 39 34 15 20 15 24 20 29 31 21 20
Wind_Direction_500mb
339 334 326 319 315 311 312 313 312 311 309 310 314 316 315 312 305 304 279 253 241 230 213 181 192 212 215 245 255 276 325 211 157 42 122 155 121 132 122 126 131 125 137 150 151
349 342 336 329 323 319 315 313 312 308 306 306 309 311 315 315 309 283 254 253 243 208 186 189 196 200 215 242 245 238 257 260 78 163 119 142 131 123 160 130 130 126 134 149 153
348 346 343 336 330 322 317 315 313 309 307 308 307 306 311 321 304 158 230 271 223 192 190 201 207 207 229 237 232 258 206 268 108 32 14 133 124 156 151 165 147 149 148 157 159
349 344 341 339 333 326 320 314 310 309 306 305 308 305 308 306 293 232 230 344 186 169 196 207 215 216 239 233 237 256 165 269 87 93 2 179 114 160 76 101 137 154 158 162 165
350 346 340 336 333 327 322 319 316 311 305 303 304 300 309 246 251 258 250 265 172 179 202 208 218 220 237 248 235 250 276 177 167 154 143 261 140 118 109 104 127 151 160 167 169
348 344 340 336 331 326 323 322 317 313 306 299 296 290 279 257 226 136 213 221 180 190 207 209 219 223 258 263 250 240 245 253 261 208 175 228 146 160 111 133 140 158 167 172 174
349 345 340 339 331 326 324 321 316 315 311 302 292 277 256 247 216 220 172 194 195 204 209 211 219 232 231 264 240 260 247 231 221 214 175 237 172 121 127 141 149 164 172 175 177
347 341 338 337 332 327 325 320 314 313 310 306 297 215 259 219 225 232 202 201 212 203 218 217 221 244 247 257 245 236 236 239 216 203 191 208 187 138 169 147 156 164 174 178 181
346 343 337 332 333 330 327 320 314 309 302 288 12 213 238 261 218 206 209 207 200 200 203 219 212 228 226 235 240 226 223 220 221 184 189 213 210 137 163 155 157 164 173 182 181
345 345 341 330 332 333 334 325 331 321 342 267 252 234 226 182 180 199 198 203 201 197 200 210 206 221 233 207 225 209 226 204 209 175 217 172 285 144 174 162 160 167 172 182 187
345 345 344 333 333 342 353 339 298 209 225 294 288 293 247 215 244 222 199 197 196 195 205 210 213 213 216 225 236 243 216 246 202 170 195 206 168 138 185 176 160 169 176 184 191
345 344 347 335 333 356 24 358 25 333 299 234 243 244 249 229 214 204 187 193 201 208 207 191 225 228 228 228 228 248 259 232 214 131 253 185 178 162 179 193 175 175 181 186 189
342 344 343 338 347 8 4 37 339 329 255 172 189 224 162 193 224 176 200 212 198 213 205 225 215 225 226 228 229 228 226 234 175 205 246 180 233 101 178 203 180 178 180 192 192
341 344 347 356 35 341 353 333 332 303 263 150 196 152 187 205 212 187 213 244 225 226 224 224 234 227 220 231 234 231 222 242 239 231 218 226 208 319 240 189 194 203 178 189 193
339 343 353 17 308 322 297 323 311 244 254 107 126 101 195 237 70 180 205 230 254 215 229 215 225 198 236 212 230 241 216 227 245 225 251 232 260 190 227 188 191 199 198 186 194
337 343 13 7 14 328 322 308 293 231 214 129 168 206 194 197 172 152 196 228 263 264 227 242 212 242 224 221 230 223 238 213 232 238 238 197 238 215 183 235 187 196 203 193 191
335 326 3 46 314 322 323 259 236 255 140 119 142 232 259 157 176 220 189 202 223 219 228 215 239 207 238 227 213 221 221 196 213 221 235 233 165 260 183 323 202 193 195 193 198
332 300 285 311 325 316 307 249 261 45 26 64 269 219 232 183 183 191 193 177 248 298 271 212 211 211 215 240 205 210 223 216 205 211 219 240 225 231 134 171 270 206 186 191 199
340 343 294 284 305 320 271 243 11 36 4 303 230 255 176 196 265 209 231 61 46 306 277 260 231 195 219 208 240 197 231 231 250 219 230 212 206 205 182 184 217 205 206 182 196
1 268 261 305 290 290 256 294 24 359 305 261 272 249 255 177 216 212 180 59 235 297 279 318 278 219 192 207 231 247 209 229 242 252 239 230 206 205 182 199 215 198 193 213 195
20 263 308 321 285 246 274 52 75 56 310 315 323 268 282 263 270 208 169 97 292 299 277 289 261 239 189 211 213 210 241 221 237 240 248 241 181 268 176 199 203 208 209 201 197
299 270 343 335 257 293 25 11 6 23 236 297 296 313 276 163 245 250 225 48 347 296 232 146 271 238 226 217 224 236 216 232 224 221 246 272 25 11 187 174 232 99 53 11 303
304 313 339 316 287 158 101 152 318 266 321 280 272 279 283 268 263 285 179 93 329 306 4 6 234 233 244 201 223 229 224 220 230 243 216 244 142 130 250 133 76 53 28 2 295
300 261 145 50 341 306 285 182 180 351 322 304 323 299 253 238 225 228 217 161 286 337 323 279 259 273 219 340 216 214 233 229 227 223 230 217 174 147 149 164 99 59 16 8 331
313 57 350 338 63 346 297 15 258 156 299 278 229 259 268 264 232 229 241 240 185 152 254 267 266 265 269 307 282 283 210 227 228 231 225 222 226 191 119 110 76 28 24 21 0
314 316 158 63 329 243 98 72 301 106 294 343 280 343 310 267 298 3 235 237 283 120 268 255 266 270 277 260 249 247 259 270 221 230 250 247 224 230 105 79 31 17 25 14 13
330 329 275 101 180 263 52 80 110 269 27 219 282 274 282 6 333 326 307 306 295 280 282 276 272 251 258 228 232 228 225 226 248 225 231 234 236 11 34 54 18 352 28 352 16
Wind_Speed_850mb
36 34 34 35 34 34 35 36 35 33 33 34 33 31 28 28 26 26 16 19 20 20 12 23 26 21 21 26 26 30 19 12 27 23 24 21 28 18 29 28 15 8 33 56 54
36 37 37 34 33 35 35 33 33 34 34 32 31 30 29 29 28 28 31 30 30 24 27 32 32 27 30 21 23 20 5 10 13 17 30 20 31 22 24 27 22 20 51 55 54
41 39 37 37 34 33 32 33 32 33 33 31 28 27 25 24 28 10 12 8 22 28 29 30 26 29 32 24 26 28 8 22 11 22 5 32 34 23 26 23 34 36 54 57 54
43 43 41 37 36 34 33 31 30 31 32 29 26 25 21 11 9 3 11 5 18 32 27 33 30 35 33 30 28 22 34 34 20 12 8 2 35 15 34 22 41 40 53 58 52
45 44 41 41 38 36 35 33 31 27 29 27 22 23 17 16 19 10 16 9 18 34 32 37 36 37 32 25 20 22 24 8 9 10 9 17 22 27 30 24 32 41 51 54 51
45 44 44 43 39 39 37 34 31 27 26 25 19 19 12 31 4 2 6 12 16 28 31 35 30 35 29 31 20 12 24 18 14 8 15 24 20 21 36 24 35 41 50 51 49
48 45 42 42 41 39 38 33 29 26 23 21 16 12 18 26 8 8 8 16 22 25 30 36 30 29 25 26 33 23 21 25 25 21 20 26 24 21 28 35 38 39 45 49 47
52 46 41 39 38 39 37 30 29 22 17 13 8 4 16 7 15 21 16 17 18 28 24 28 33 27 40 24 13 26 30 27 30 30 21 29 28 51 42 36 35 38 43 48 48
58 54 46 37 35 36 30 27 26 17 11 6 5 9 11 8 10 12 24 25 21 23 23 17 30 36 37 28 26 31 30 38 24 29 21 31 16 39 37 41 36 37 41 46 48
59 54 44 38 34 29 26 26 12 8 7 1 12 14 13 10 8 11 15 23 27 26 28 21 26 27 30 30 30 36 38 38 30 31 20 29 16 38 41 42 38 37 41 46 48
60 56 42 37 35 22 22 16 7 3 13 22 3 18 9 8 13 14 19 26 33 33 32 37 26 34 41 40 38 38 38 40 22 29 31 31 46 34 33 39 43 39 40 45 47
60 58 40 32 27 14 19 11 9 11 16 9 7 7 9 9 11 21 22 30 30 34 39 29 38 35 31 34 41 42 31 31 21 34 39 23 30 33 29 31 39 42 42 43 47
59 51 38 30 16 14 8 4 10 12 16 20 8 1 4 11 17 27 29 37 32 40 41 42 33 40 33 34 37 40 38 33 25 26 31 35 26 8 27 28 40 42 41 43 50
56 46 32 19 10 9 1 12 16 8 11 27 22 9 10 6 16 10 23 23 23 37 41 41 38 17 44 31 32 41 43 41 34 32 26 37 17 16 65 35 29 33 47 43 49
50 38 23 12 3 10 13 16 12 4 12 4 18 3 7 15 4 22 21 26 32 32 34 34 36 30 34 30 39 35 38 40 39 28 36 16 23 48 49 43 38 40 46 48 47
39 24 13 14 10 13 17 15 4 14 3 14 5 10 21 15 15 4 27 26 20 25 35 40 38 33 27 31 35 32 38 44 32 30 33 39 35 24 27 38 42 44 49 51 53
32 11 5 5 10 20 17 7 14 15 3 10 3 8 8 8 16 18 23 30 23 20 30 34 40 32 27 37 34 33 35 21 26 31 32 41 30 42 16 32 41 44 53 55 59
28 9 6 6 15 19 12 18 22 16 8 6 7 11 23 9 7 12 13 13 7 21 26 30 36 39 38 40 36 38 43 28 39 35 33 40 34 37 39 26 46 50 55 54 59
20 6 4 10 15 13 19 18 14 11 8 10 10 19 21 15 9 20 18 3 11 12 27 25 42 49 42 33 43 37 43 46 44 40 33 34 36 15 20 33 23 19 22 54 58
9 6 5 14 11 11 17 11 7 11 14 13 22 4 15 18 19 23 26 6 5 7 19 17 26 30 41 32 41 44 37 37 32 43 38 43 44 30 23 18 20 19 25 30 52
8 13 2 10 8 21 14 12 4 6 12 12 7 10 15 5 26 19 20 14 6 8 15 18 21 26 30 38 39 30 36 31 39 31 27 27 26 29 42 34 25 28 41 50 51
10 8 10 7 25 5 3 7 5 2 2 3 11 16 13 1 19 12 11 5 6 17 18 5 15 32 37 31 40 40 42 34 28 41 33 24 4 18 36 22 16 22 24 18 21
16 9 10 7 12 5 9 7 7 7 4 3 3 9 2 11 10 17 1 7 9 10 11 14 20 23 32 37 38 44 40 43 36 38 41 31 13 20 8 20 19 24 19 17 16
13 6 9 2 8 17 2 7 8 3 5 13 12 9 11 16 11 4 18 10 5 9 11 11 23 27 24 6 22 41 42 39 45 32 34 36 20 15 25 11 20 17 21 25 17
6 8 9 6 8 10 9 10 10 5 6 10 10 16 14 15 16 18 7 10 16 6 14 11 24 29 34 12 17 28 46 46 39 37 41 31 41 27 27 20 18 15 25 32 25
13 11 3 8 2 10 5 8 7 4 8 4 16 23 12 19 13 12 6 11 11 3 15 17 17 21 27 28 25 23 21 25 43 37 34 37 33 36 32 25 24 30 28 30 25
6 6 12 7 5 11 8 8 6 6 4 1 13 13 21 25 26 20 20 21 22 14 17 14 17 19 30 32 30 32 31 34 33 34 39 34 15 20 15 24 20 29 31 21 20
Wind_Direction_850mb
339 334 326 319 315 311 312 313 312 311 309 310 314 316 315 312 305 304 279 253 241 230 213 181 192 212 215 245 255 276 325 211 157 42 122 155 121 132 122 126 131 125 137 150 151
349 342 336 329 323 319 315 313 312 308 306 306 309 311 315 315 309 283 254 253 243 208 186 189 196 200 215 242 245 238 257 260 78 163 119 142 131 123 160 130 130 126 134 149 153
348 346 343 336 330 322 317 315 313 309 307 308 307 306 311 321 304 158 230 271 223 192 190 201 207 207 229 237 232 258 206 268 108 32 14 133 124 156 151 165 147 149 148 157 159
349 344 341 339 333 326 320 314 310 309 306 305 308 305 308 306 293 232 230 344 186 169 196 207 215 216 239 233 237 256 165 269 87 93 2 179 114 160 76 101 137 154 158 162 165
350 346 340 336 333 327 322 319 316 311 305 303 304 300 309 246 251 258 250 265 172 179 202 208 218 220 237 248 235 250 276 177 167 154 143 261 140 118 109 104 127 151 160 167 169
348 344 340 336 331 326 323 322 317 313 306 299 296 290 279 257 226 136 213 221 180 190 207 209 219 223 258 263 250 240 245 253 261 208 175 228 146 160 111 133 140 158 167 172 174
349 345 340 339 331 326 324 321 316 315 311 302 292 277 256 247 216 220 172 194 195 204 209 211 219 232 231 264 240 260 247 231 221 214 175 237 172 121 127 141 149 164 172 175 177
347 341 338 337 332 327 325 320 314 313 310 306 297 215 259 219 225 232 202 201 212 203 218 217 221 244 247 257 245 236 236 239 216 203 191 208 187 138 169 147 156 164 174 178 181
346 343 337 332 333 330 327 320 314 309 302 288 12 213 238 261 218 206 209 207 200 200 203 219 212 228 226 235 240 226 223 220 221 184 189 213 210 137 163 155 157 164 173 182 181
345 345 341 330 332 333 334 325 331 321 342 267 252 234 226 182 180 199 198 203 201 197 200 210 206 221 233 207 225 209 226 204 209 175 217 172 285 144 174 162 160 167 172 182 187
345 345 344 333 333 342 353 339 298 209 225 294 288 293 247 215 244 222 199 197 196 195 205 210 213 213 216 225 236 243 216 246 202 170 195 206 168 138 185 176 160 169 176 184 191
345 344 347 335 333 356 24 358 25 333 299 234 243 244 249 229 214 204 187 193 201 208 207 191 225 228 228 228 228 248 259 232 214 131 253 185 178 162 179 193 175 175 181 186 189
342 344 343 338 347 8 4 37 339 329 255 172 189 224 162 193 224 176 200 212 198 213 205 225 215 225 226 228 229 228 226 234 175 205 246 180 233 101 178 203 180 178 180 192 192
341 344 347 356 35 341 353 333 332 303 263 150 196 152 187 205 212 187 213 244 225 226 224 224 234 227 220 231 234 231 222 242 239 231 218 226 208 319 240 189 194 203 178 189 193
339 343 353 17 308 322 297 323 311 244 254 107 126 101 195 237 70 180 205 230 254 215 229 215 225 198 236 212 230 241 216 227 245 225 251 232 260 190 227 188 191 199 198 186 194
337 343 13 7 14 328 322 308 293 231 214 129 168 206 194 197 172 152 196 228 263 264 227 242 212 242 224 221 230 223 238 213 232 238 238 197 238 215 183 235 187 196 203 193 191
335 326 3 46 314 322 323 259 236 255 140 119 142 232 259 157 176 220 189 202 223 219 228 215 239 207 238 227 213 221 221 196 213 221 235 233 165 260 183 323 202 193 195 193 198
332 300 285 311 325 316 307 249 261 45 26 64 269 219 232 183 183 191 193 177 248 298 271 212 211 211 215 240 205 210 223 216 205 211 219 240 225 231 134 171 270 206 186 191 199
340 343 294 284 305 320 271 243 11 36 4 303 230 255 176 196 265 209 231 61 46 306 277 260 231 195 219 208 240 197 231 231 250 219 230 212 206 205 182 184 217 205 206 182 196
1 268 261 305 290 290 256 294 24 359 305 261 272 249 255 177 216 212 180 59 235 297 279 318 278 219 192 207 231 247 209 229 242 252 239 230 206 205 182 199 215 198 193 213 195
20 263 308 321 285 246 274 52 75 56 310 315 323 268 282 263 270 208 169 97 292 299 277 289 261 239 189 211 213 210 241 221 237 240 248 241 181 268 176 199 203 208 209 201 197
299 270 343 335 257 293 25 11 6 23 236 297 296 313 276 163 245 250 225 48 347 296 232 146 271 238 226 217 224 236 216 232 224 221 246 272 25 11 187 174 232 99 53 11 303
304 313 339 316 287 158 101 152 318 266 321 280 272 279 283 268 263 285 179 93 329 306 4 6 234 233 244 201 223 229 224 220 230 243 216 244 142 130 250 133 76 53 28 2 295
300 261 145 50 341 306 285 182 180 351 322 304 323 299 253 238 225 228 217 161 286 337 323 279 259 273 219 340 216 214 233 229 227 223 230 217 174 147 149 164 99 59 16 8 331
313 57 350 338 63 346 297 15 258 156 299 278 229 259 268 264 232 229 241 240 185 152 254 267 266 265 269 307 282 283 210 227 228 231 225 222 226 191 119 110 76 28 24 21 0
314 316 158 63 329 243 98 72 301 106 294 343 280 343 310 267 298 3 235 237 283 120 268 255 266 270 277 260 249 247 259 270 221 230 250 247 224 230 105 79 31 17 25 14 13
330 329 275 101 180 263 52 80 110 269 27 219 282 274 282 6 333 326 307 306 295 280 282 276 272 251 258 228 232 228 225 226 248 225 231 234 236 11 34 54 18 352 28 352 16